• In Netherlands
  • List of Countries
  • For 7 days
  • Water Temperature
  • Satellite Maps
  • Weather Map
  • Weather Widgets
  • user-avatar
    Login

    Hourly Weather Golden Sands

    Today, 30 March, Thursday

    Time Temperature Precipitation Wind Pressure Humidity
    00:00 +11°C° 0 mm 1 mps 763 mmHg 71%
    01:00 +10°C° 0 mm 2 mps 763 mmHg 70%
    02:00 +11°C° 0 mm 1 mps 762 mmHg 70%
    03:00 +11°C° 0 mm 1 mps 762 mmHg 70%
    04:00 +10°C° 0 mm 2 mps 762 mmHg 69%
    05:00 +10°C° 0 mm 2 mps 762 mmHg 69%
    06:00 +13°C° 0 mm 2 mps 762 mmHg 65%
    07:00 +14°C° 0 mm 2 mps 762 mmHg 62%
    08:00 +16°C° 0 mm 3 mps 762 mmHg 55%
    09:00 +17°C° 0 mm 4 mps 763 mmHg 56%
    10:00 +16°C° 0 mm 5 mps 763 mmHg 58%
    11:00 +17°C° 0 mm 5 mps 763 mmHg 59%
    12:00 +17°C° 0 mm 6 mps 763 mmHg 59%
    13:00 +17°C° 0 mm 6 mps 763 mmHg 58%
    14:00 +17°C° 0 mm 7 mps 764 mmHg 58%
    15:00 +16°C° 0.1 mm 6 mps 764 mmHg 61%
    16:00 +16°C° 0.1 mm 6 mps 764 mmHg 65%
    17:00 +15°C° 0.1 mm 6 mps 764 mmHg 68%
    18:00 +13°C° 0 mm 6 mps 765 mmHg 72%
    19:00 +12°C° 0 mm 5 mps 765 mmHg 76%
    20:00 +10°C° 0 mm 5 mps 766 mmHg 81%
    21:00 +9°C° 0 mm 5 mps 766 mmHg 81%
    22:00 +9°C° 0 mm 6 mps 767 mmHg 82%
    23:00 +9°C° 0 mm 6 mps 767 mmHg 83%

    Tomorrow, 31 March, Friday

    Time Temperature Precipitation Wind Pressure Humidity
    00:00 +8°C° 0 mm 7 mps 768 mmHg 82%
    01:00 +8°C° 0 mm 7 mps 768 mmHg 81%
    02:00 +7°C° 0 mm 8 mps 768 mmHg 80%
    03:00 +6°C° 0 mm 8 mps 768 mmHg 80%
    04:00 +6°C° 0 mm 8 mps 769 mmHg 80%
    05:00 +5°C° 0 mm 8 mps 769 mmHg 80%
    06:00 +6°C° 0 mm 8 mps 769 mmHg 77%
    07:00 +6°C° 0 mm 8 mps 770 mmHg 74%
    08:00 +6°C° 0 mm 8 mps 770 mmHg 71%
    09:00 +7°C° 0 mm 8 mps 770 mmHg 67%
    10:00 +9°C° 0 mm 8 mps 770 mmHg 62%
    11:00 +10°C° 0 mm 8 mps 771 mmHg 58%
    12:00 +10°C° 0 mm 7 mps 770 mmHg 57%
    13:00 +10°C° 0 mm 7 mps 770 mmHg 55%
    14:00 +10°C° 0 mm 7 mps 770 mmHg 54%
    15:00 +9°C° 0 mm 7 mps 770 mmHg 57%
    16:00 +9°C° 0 mm 6 mps 769 mmHg 60%
    17:00 +8°C° 0 mm 6 mps 769 mmHg 63%
    18:00 +7°C° 0 mm 5 mps 769 mmHg 69%
    19:00 +6°C° 0 mm 5 mps 769 mmHg 75%
    20:00 +4°C° 0 mm 4 mps 769 mmHg 81%
    21:00 +4°C° 0 mm 4 mps 769 mmHg 82%
    22:00 +3°C° 0 mm 3 mps 769 mmHg 84%
    23:00 +2°C° 0 mm 3 mps 769 mmHg 85%

    Day after tomorrow, 1 April, Saturday

    Time Temperature Precipitation Wind Pressure Humidity
    00:00 +3°C° 0 mm 2 mps 769 mmHg 85%
    01:00 +3°C° 0 mm 2 mps 769 mmHg 86%
    02:00 +2°C° 0 mm 2 mps 768 mmHg 86%
    03:00 +2°C° 0 mm 2 mps 768 mmHg 86%
    04:00 +2°C° 0 mm 2 mps 768 mmHg 85%
    05:00 +2°C° 0 mm 2 mps 768 mmHg 85%
    06:00 +3°C° 0 mm 2 mps 768 mmHg 77%
    07:00 +5°C° 0 mm 2 mps 768 mmHg 69%
    08:00 +7°C° 0 mm 2 mps 768 mmHg 60%
    09:00 +9°C° 0 mm 2 mps 768 mmHg 55%
    10:00 +10°C° 0 mm 2 mps 768 mmHg 51%
    11:00 +12°C° 0 mm 2 mps 768 mmHg 46%
    12:00 +13°C° 0 mm 2 mps 768 mmHg 46%
    13:00 +13°C° 0 mm 2 mps 768 mmHg 46%
    14:00 +13°C° 0 mm 2 mps 767 mmHg 46%
    15:00 +13°C° 0 mm 2 mps 767 mmHg 50%
    16:00 +12°C° 0 mm 2 mps 767 mmHg 54%
    17:00 +11°C° 0 mm 3 mps 767 mmHg 58%
    18:00 +9°C° 0 mm 3 mps 767 mmHg 67%
    19:00 +7°C° 0 mm 3 mps 767 mmHg 76%
    20:00 +4°C° 0 mm 3 mps 767 mmHg 85%
    21:00 +5°C° 0 mm 2 mps 767 mmHg 85%
    22:00 +5°C° 0 mm 2 mps 767 mmHg 85%
    23:00 +4°C° 0 mm 2 mps 767 mmHg 86%

    2 April, Sunday

    Time Temperature Precipitation Wind Pressure Humidity
    00:00 +4°C° 0 mm 2 mps 767 mmHg 86%
    01:00 +3°C° 0 mm 2 mps 767 mmHg 87%
    02:00 +4°C° 0 mm 1 mps 767 mmHg 87%
    03:00 +3°C° 0 mm 2 mps 767 mmHg 86%
    04:00 +3°C° 0 mm 2 mps 767 mmHg 86%
    05:00 +3°C° 0 mm 2 mps 767 mmHg 85%
    06:00 +5°C° 0 mm 2 mps 767 mmHg 78%
    07:00 +7°C° 0 mm 2 mps 767 mmHg 71%
    08:00 +9°C° 0 mm 2 mps 767 mmHg 64%
    09:00 +10°C° 0 mm 3 mps 767 mmHg 59%
    10:00 +12°C° 0 mm 3 mps 768 mmHg 54%
    11:00 +13°C° 0 mm 3 mps 768 mmHg 49%
    12:00 +13°C° 0 mm 3 mps 767 mmHg 49%
    13:00 +14°C° 0 mm 3 mps 767 mmHg 48%
    14:00 +14°C° 0 mm 4 mps 767 mmHg 47%
    15:00 +13°C° 0 mm 4 mps 766 mmHg 51%
    16:00 +13°C° 0 mm 4 mps 766 mmHg 55%
    17:00 +12°C° 0 mm 4 mps 766 mmHg 59%
    18:00 +11°C° 0 mm 4 mps 766 mmHg 67%
    19:00 +9°C° 0 mm 3 mps 766 mmHg 75%
    20:00 +7°C° 0 mm 3 mps 766 mmHg 83%
    21:00 +7°C° 0 mm 3 mps 766 mmHg 85%
    22:00 +7°C° 0 mm 3 mps 766 mmHg 87%
    23:00 +7°C° 0 mm 2 mps 766 mmHg 89%

    3 April, Monday

    Time Temperature Precipitation Wind Pressure Humidity
    00:00 +7°C° 0 mm 2 mps 766 mmHg 90%
    01:00 +6°C° 0 mm 2 mps 765 mmHg 90%
    02:00 +6°C° 0 mm 2 mps 765 mmHg 91%
    03:00 +6°C° 0 mm 2 mps 765 mmHg 91%
    04:00 +6°C° 0 mm 2 mps 765 mmHg 92%
    05:00 +5°C° 0 mm 3 mps 764 mmHg 92%
    06:00 +8°C° 0 mm 3 mps 764 mmHg 88%
    07:00 +9°C° 0 mm 3 mps 764 mmHg 83%
    08:00 +10°C° 0 mm 3 mps 764 mmHg 79%
    09:00 +12°C° 0 mm 3 mps 764 mmHg 73%
    10:00 +13°C° 0 mm 3 mps 764 mmHg 67%
    11:00 +14°C° 0 mm 3 mps 764 mmHg 61%
    12:00 +14°C° 0 mm 3 mps 764 mmHg 59%
    13:00 +16°C° 0 mm 3 mps 763 mmHg 58%
    14:00 +16°C° 0 mm 3 mps 763 mmHg 57%
    15:00 +14°C° 0 mm 3 mps 763 mmHg 61%
    16:00 +13°C° 0 mm 3 mps 762 mmHg 64%
    17:00 +13°C° 0 mm 3 mps 762 mmHg 68%
    18:00 +11°C° 0 mm 3 mps 762 mmHg 75%
    19:00 +9°C° 0 mm 3 mps 762 mmHg 82%
    20:00 +8°C° 0 mm 3 mps 762 mmHg 89%
    21:00 +8°C° 0 mm 3 mps 762 mmHg 89%
    22:00 +8°C° 0 mm 2 mps 762 mmHg 89%
    23:00 +8°C° 0 mm 2 mps 762 mmHg 90%

    4 April, Tuesday

    Time Temperature Precipitation Wind Pressure Humidity
    00:00 +8°C° 0 mm 2 mps 762 mmHg 90%
    01:00 +8°C° 0 mm 2 mps 762 mmHg 90%
    02:00 +8°C° 0 mm 2 mps 761 mmHg 90%
    03:00 +9°C° 0.1 mm 1 mps 761 mmHg 90%
    04:00 +9°C° 0.1 mm 1 mps 761 mmHg 90%
    05:00 +10°C° 0.1 mm 1 mps 761 mmHg 90%
    06:00 +9°C° 0 mm 2 mps 762 mmHg 88%
    07:00 +10°C° 0 mm 2 mps 762 mmHg 86%
    08:00 +10°C° 0 mm 3 mps 762 mmHg 85%
    09:00 +11°C° 0 mm 4 mps 762 mmHg 81%
    10:00 +12°C° 0 mm 4 mps 762 mmHg 77%
    11:00 +14°C° 0 mm 5 mps 762 mmHg 74%
    12:00 +14°C° 0 mm 5 mps 762 mmHg 73%
    13:00 +14°C° 0 mm 5 mps 762 mmHg 72%
    14:00 +14°C° 0 mm 5 mps 762 mmHg 72%
    15:00 +14°C° 0 mm 5 mps 762 mmHg 74%
    16:00 +13°C° 0 mm 5 mps 762 mmHg 77%
    17:00 +13°C° 0 mm 5 mps 762 mmHg 80%
    18:00 +12°C° 0 mm 4 mps 763 mmHg 84%
    19:00 +10°C° 0 mm 4 mps 763 mmHg 89%
    20:00 +8°C° 0 mm 4 mps 764 mmHg 94%
    21:00 +9°C° 0 mm 3 mps 764 mmHg 94%
    22:00 +9°C° 0 mm 3 mps 764 mmHg 93%
    23:00 +8°C° 0 mm 2 mps 764 mmHg 93%
    Show more